Flag for Germany Weather past 2 weeks in Duisburg, North Rhine-Westphalia, Germany

Now
50 °F

Light rain. Overcast.


Feels Like: 44 °F
Forecast: 42 / 49 °F
Wind: 20 mph from Southwest

Location: Duesseldorf

Current Time: Mar 29, 2015 at 8:45:48 AM

Latest Report: Mar 29, 2015 at 8:20 AM


Visibility: N/A

Pressure: 29.68 "Hg

Humidity: 76%

Dew point: 43 °F

Location of DuisburgLocation

Historic Weather in Duisburg — Graph

°F

Duisburg temperature yesterday

Maximum temperature yesterday: 54 °F (at 11:20 AM)
Minimum temperature yesterday: 32 °F (at 5:20 AM)
Average temperature yesterday: 46 °F

Past Weeks' High & Low Weather Summary

 TemperatureHumidityPressure
High64 °F (Mar 17, 1:50 PM)100% (Mar 20, 2:50 AM)30.39 "Hg (Mar 20, 2:50 AM)
Low30 °F (Mar 20, 2:50 AM)32% (Mar 17, 4:20 PM)29.65 "Hg (Mar 25, 1:20 AM)
Average44 °F78%30.09 "Hg
* Reported Mar 14 6:20 AM — Mar 29 7:50 AM, Duisburg, Weather by CustomWeather, © 2015

Note: Actual official high and low records may vary slightly from our data, if they occured in-between our weather recording intervals... More about our weather records

Advertising

Duisburg weather history for previous 24 hours

 ConditionsComfort  
Time TempWeatherWind HumidityBarometerVisibility
7:50 AM
Sun, Mar 29
52 °FPassing clouds.21 mph72%29.68 "HgN/A
7:20 AM52 °FPartly cloudy.18 mph77%29.68 "HgN/A
6:50 AM52 °FPartly cloudy.16 mph77%29.71 "HgN/A
6:20 AM52 °FPartly cloudy.17 mph77%29.71 "HgN/A
5:50 AM52 °FPassing clouds.16 mph77%29.71 "HgN/A
5:20 AM52 °FPartly cloudy.21 mph77%29.71 "HgN/A
4:50 AM52 °FPartly cloudy.20 mph77%29.71 "HgN/A
4:20 AM52 °FPartly cloudy.20 mph77%29.71 "HgN/A
3:50 AM52 °FPartly cloudy.17 mph82%29.74 "HgN/A
3:20 AM54 °FPassing clouds.18 mph77%29.74 "HgN/A
1:50 AM54 °FPartly cloudy.22 mph77%29.74 "HgN/A
1:20 AM54 °FPassing clouds.21 mph82%29.74 "HgN/A
12:50 AM54 °FPartly cloudy.16 mph88%29.74 "HgN/A
12:20 AM54 °FPassing clouds.16 mph88%29.74 "HgN/A
11:50 PM
Sat, Mar 28
52 °FDrizzle. Overcast.17 mph94%29.77 "HgN/A
11:20 PM52 °FDrizzle. Overcast.12 mph94%29.80 "Hg5 mi
10:50 PM52 °FDrizzle. Overcast.13 mph94%29.80 "HgN/A
10:20 PM52 °FPartly cloudy.15 mph94%29.80 "Hg6 mi
9:50 PM52 °FPartly cloudy.15 mph88%29.80 "HgN/A
9:20 PM52 °FLight rain. Passing clouds.15 mph88%29.83 "HgN/A
8:50 PM52 °FPassing clouds.14 mph88%29.83 "HgN/A
8:20 PM52 °FDrizzle. Overcast.13 mph88%29.86 "HgN/A
7:50 PM50 °FPartly cloudy.13 mph94%29.86 "HgN/A
7:20 PM50 °FPassing clouds.12 mph88%29.86 "HgN/A
6:50 PM50 °FPartly sunny.12 mph94%29.89 "HgN/A
6:20 PM50 °FPartly sunny.12 mph88%29.89 "HgN/A
5:50 PM48 °FPartly sunny.12 mph94%29.89 "HgN/A
5:20 PM48 °FLight rain. Broken clouds.14 mph94%29.89 "HgN/A
4:50 PM48 °FBroken clouds.15 mph94%29.92 "HgN/A
4:20 PM48 °FDrizzle. Fog.16 mph94%29.92 "Hg2 mi
3:50 PM48 °FDrizzle. Fog.14 mph94%29.95 "Hg2 mi
3:20 PM48 °FDrizzle. More clouds than sun.14 mph94%29.95 "Hg3 mi
2:50 PM48 °FDrizzle. Overcast.15 mph87%29.98 "Hg4 mi
2:20 PM50 °FLight rain. Partly sunny.14 mph82%29.98 "HgN/A
1:50 PM50 °FLight rain. Partly sunny.14 mph82%29.98 "HgN/A
1:20 PM50 °FLight rain. Partly sunny.14 mph76%30.01 "HgN/A
12:50 PM52 °FLight rain. Partly sunny.15 mph67%30.01 "HgN/A
12:20 PM54 °FPartly sunny.15 mph51%30.01 "HgN/A
11:50 AM54 °FPartly sunny.16 mph51%30.04 "HgN/A
11:20 AM54 °FPartly sunny.17 mph51%30.07 "HgN/A
10:50 AM52 °FSunny.15 mph58%30.07 "Hg10 mi
10:20 AM50 °FSunny.13 mph58%30.07 "Hg10 mi
9:50 AM48 °FPartly sunny.10 mph66%30.09 "HgN/A
9:20 AM46 °FScattered clouds.9 mph71%30.09 "HgN/A
8:50 AM43 °FPartly sunny.10 mph76%30.12 "HgN/A
8:20 AM41 °FPartly sunny.10 mph81%30.12 "HgN/A
Weather by CustomWeather, © 2015

See weather overviewHow to use our weather pages